[[{"header":{"parameterUnit":"m.s-1","parameterCategory":2,"la1":30.2991,"la2":30.254,"lo1":-89.0895,"lo2":-89.0444,"dy":0.0017,"dx":0.0017,"nx":28,"ny":28,"refTime":"2023-07-18T03:00:00:Z","depth":"0","parameterNumber":2,"parameterNumberName":"U-component_of_CURRENTS"},"data":[0,0,0,0,0,0,0,0,0,0,0,0,0,0,0,0,0,0,0,0,0,0,0,0,0,0,0,0,0,0,0,0,0,0,0,0,0,0,0,0,0,0,0,0,0,0,0,0,0,0,0,0,0,0,0,0,0,0,-0.0656,-0.0657,0,-0.0706,-0.0706,-0.0706,-0.0705,-0.0705,-0.0705,-0.0705,-0.0513,-0.0509,-0.0504,0,0,0,0,0,0,0,0,0,0,0,0,0,-0.058,-0.0581,-0.0656,-0.0657,-0.0659,-0.0706,-0.0706,-0.0706,-0.0705,-0.0705,-0.0705,-0.0705,-0.0515,-0.0509,-0.0503,0,0,0,0,0,0,0,0,0,0,0,0,0,-0.0614,-0.0581,-0.0656,-0.0668,-0.0671,-0.0706,-0.0706,-0.0706,-0.0705,-0.0705,-0.0705,-0.0705,-0.0517,-0.051,-0.0502,-0.0459,0,0,-0.0479,-0.0476,0,0,0,0,0,0,0,0,-0.0612,-0.0616,-0.0665,-0.0668,-0.067,-0.0705,-0.0609,-0.0613,-0.0705,-0.0685,-0.0705,-0.0705,-0.0559,-0.0548,-0.0552,-0.045,-0.0442,-0.0479,-0.0474,-0.0471,-0.0469,0,0,0,0,0,0,0,-0.0609,-0.0614,-0.0669,-0.0667,-0.067,-0.0679,-0.0682,-0.0611,-0.0613,-0.0687,-0.0689,-0.0704,-0.0558,-0.056,-0.0547,-0.0439,-0.0479,-0.0472,-0.0468,-0.0465,-0.0261,-0.026,0,0,0,0,0,0,-0.0615,-0.0612,-0.0668,-0.0672,-0.0647,-0.0681,-0.0684,-0.0689,-0.0619,-0.0612,-0.0704,-0.0704,-0.0573,-0.0556,-0.054,-0.0474,-0.0471,-0.0464,-0.046,-0.0262,-0.0261,-0.026,0,0,0,0,0,0,-0.0613,-0.0619,-0.0666,-0.0648,-0.0656,-0.0683,-0.0687,-0.069,-0.0689,-0.0636,-0.0623,-0.0702,-0.0572,-0.0551,-0.0466,-0.0466,-0.0461,-0.0454,-0.0263,-0.0262,-0.0261,-0.0346,0,0,0,0,0,0,-0.061,-0.0618,-0.0601,-0.0648,-0.0657,-0.0675,-0.0688,-0.0691,-0.0702,-0.0702,-0.0629,-0.0612,-0.057,-0.0478,-0.0459,-0.0456,-0.0448,-0.0264,-0.0263,-0.0261,-0.0345,-0.0348,-0.0351,0,0,0,0,0,-0.0607,-0.0597,-0.0599,-0.0606,-0.064,-0.0676,-0.0679,-0.0695,-0.0702,-0.0694,-0.0645,-0.0614,-0.0454,-0.0471,-0.0449,-0.0444,-0.0265,-0.0263,-0.0261,-0.0343,-0.0347,-0.0351,0,0,0,0,0,0,-0.0543,-0.0598,-0.0601,-0.0603,-0.063,-0.0677,-0.067,-0.0693,-0.0655,-0.0643,-0.0593,-0.0572,-0.0497,-0.0451,-0.0471,-0.0378,-0.0357,-0.0351,-0.0427,-0.043,-0.0433,-0.0461,-0.0442,0,0,0,0,0,-0.0525,-0.0538,-0.0584,-0.0583,-0.0592,-0.0629,-0.064,-0.066,-0.0652,-0.0639,-0.0589,-0.0528,-0.0473,-0.0437,-0.0368,-0.0313,-0.0306,-0.0296,-0.0299,-0.0303,-0.0308,-0.0334,-0.0343,-0.0253,-0.0253,-0.0253,0,0,-0.0496,-0.0534,-0.0533,-0.0571,-0.0588,-0.0626,-0.0633,-0.0653,-0.0674,-0.0615,-0.0582,-0.0522,-0.0456,-0.04,-0.0364,-0.0362,-0.0316,-0.03,-0.0304,-0.0307,-0.0334,-0.0343,-0.0351,-0.0252,-0.0252,-0.0253,0,0,-0.0473,-0.0478,-0.0485,-0.0527,-0.0571,-0.0603,-0.0611,-0.0644,-0.0632,-0.061,-0.057,-0.0525,-0.0431,-0.0404,-0.0377,-0.0353,-0.0325,-0.0313,-0.0362,-0.0388,-0.0397,-0.0405,-0.039,-0.0396,-0.0327,-0.0327,-0.0327,0,-0.0412,-0.0461,-0.0488,-0.0532,-0.057,-0.06,-0.0632,-0.0637,-0.0635,-0.0617,-0.06,-0.0505,-0.045,-0.0414,-0.0409,-0.0366,-0.0356,-0.0362,-0.0399,-0.0406,-0.0413,-0.0396,-0.0401,-0.0331,-0.0331,-0.033,-0.033,0,-0.0447,-0.0466,-0.0477,-0.0548,-0.0585,-0.0616,-0.0657,-0.0656,-0.0654,-0.0657,-0.0598,-0.0538,-0.0488,-0.0468,-0.0432,-0.0436,-0.0402,-0.0399,-0.0405,-0.0429,-0.0407,-0.0411,-0.0337,-0.0335,-0.0334,-0.0333,0,0,-0.0374,-0.0463,-0.0478,-0.0489,-0.0601,-0.0621,-0.0669,-0.0692,-0.0703,-0.0676,-0.067,-0.0603,-0.0565,-0.0531,-0.0479,-0.0507,-0.0544,-0.0474,-0.0474,-0.0486,-0.057,-0.0533,-0.0534,-0.0553,-0.0554,-0.0556,-0.0531,0,-0.0378,-0.0412,-0.0506,-0.0552,-0.0558,-0.0644,-0.0691,-0.0723,-0.0724,-0.0713,-0.067,-0.0623,-0.0589,-0.0554,-0.058,-0.0525,-0.0561,-0.0548,-0.052,-0.0518,-0.0508,-0.0541,-0.0388,-0.0352,-0.0535,-0.0535,-0.0536,0,-0.0424,-0.0426,-0.0451,-0.0513,-0.0533,-0.0586,-0.0656,-0.0697,-0.0725,-0.0728,-0.0711,-0.066,-0.0635,-0.0629,-0.0609,-0.0595,-0.0595,-0.0587,-0.0586,-0.0529,-0.0492,-0.0357,-0.0353,-0.0204,-0.0542,-0.0542,-0.0541,0,-0.0362,-0.0411,-0.0408,-0.0444,-0.0526,-0.0552,-0.0598,-0.0671,-0.0687,-0.0709,-0.0709,-0.0691,-0.0641,-0.0663,-0.0606,-0.0614,-0.06,-0.0614,-0.0591,-0.0586,-0.0438,-0.0419,-0.0312,-0.0663,-0.0663,-0.0663,-0.0663,0,-0.0359,-0.0343,-0.0354,-0.0369,-0.0368,-0.0463,-0.0504,-0.0562,-0.0628,-0.063,-0.0667,-0.0638,-0.0653,-0.062,-0.062,-0.0587,-0.061,-0.0604,-0.0591,-0.0458,-0.0442,-0.029,-0.0374,-0.0662,-0.0662,-0.0662,-0.0662,0,-0.0282,-0.0302,-0.03,-0.0347,-0.0344,-0.0343,-0.0431,-0.0459,-0.0537,-0.0543,-0.0539,-0.0573,-0.0537,-0.0542,-0.0551,-0.0572,-0.0553,-0.057,-0.0388,-0.0357,-0.0231,-0.0329,-0.0474,-0.0462,-0.056,-0.0559,-0.0558,0,-0.0228,-0.0217,-0.0264,-0.0257,-0.0264,-0.027,-0.03,-0.0396,-0.0424,-0.0476,-0.0453,-0.0435,-0.039,-0.0389,-0.0419,-0.0431,-0.048,-0.0353,-0.0378,-0.0206,-0.0306,-0.0462,-0.0452,-0.0194,-0.0191,-0.0188,-0.0185,0,-0.0116,-0.0161,-0.0155,-0.0166,-0.0169,-0.0186,-0.0201,-0.0204,-0.0311,-0.0307,-0.0272,-0.0233,-0.0233,-0.0169,-0.0226,-0.0234,-0.0326,-0.0298,-0.0164,-0.0067,-0.0188,-0.017,-0.0203,-0.0159,-0.0161,-0.0163,-0.0165,-0.0166,-0.0032,-0.001,-0.0053,-0.0047,-0.0069,-0.0077,-0.0052,-0.0071,-0.0068,-0.0031,-0.0061,0.0034,0.0057,0.0016,0.0027,0.012,-0.0173,0.0138,-0.0007,-0.0183,-0.0158,-0.0132,-0.006,-0.0062,-0.0064,-0.0065,-0.0067,0,0.0059,0.008,0.0079,0.0062,0.0044,0.0003,0.0018,0.0056,0.0125,0.016,0.0215,0.0345,0.0441,0.0458,0.0505,0.0491,0.0384,0.0442,0.0341,0.0326,0.0399,0.0448,0.0688,0.0688,0.0688,0.0688,0.0688,0.0688,0.0123,0.0152,0.0145,0.0179,0.0162,0.0196,0.0226,0.0295,0.0341,0.0473,0.0564,0.0592,0.068,0.077,0.0893,0.0834,0.0706,0.0539,0.0429,0.0635,0.0601,0.0568,0.0612,0.0883,0.0882,0.0511,0.0508,0.0505]},{"header":{"parameterUnit":"m.s-1","parameterCategory":2,"la1":30.2991,"la2":30.254,"lo1":-89.0895,"lo2":-89.0444,"dy":0.0017,"dx":0.0017,"nx":28,"ny":28,"refTime":"2023-07-18T03:00:00:Z","depth":"0","parameterNumber":3,"parameterNumberName":"V-component_of_CURRENTS"},"data":[0,0,0,0,0,0,0,0,0,0,0,0,0,0,0,0,0,0,0,0,0,0,0,0,0,0,0,0,0,0,0,0,0,0,0,0,0,0,0,0,0,0,0,0,0,0,0,0,0,0,0,0,0,0,0,0,0,0,-0.0399,-0.0398,0,-0.0243,-0.024,-0.0238,-0.0134,-0.0135,-0.0135,-0.0135,-0.0031,-0.0029,-0.0026,0,0,0,0,0,0,0,0,0,0,0,0,0,-0.0496,-0.0494,-0.0399,-0.0398,-0.0397,-0.0243,-0.024,-0.0237,-0.0134,-0.0135,-0.0135,-0.0135,-0.0032,-0.0029,-0.0025,0,0,0,0,0,0,0,0,0,0,0,0,0,-0.0399,-0.0494,-0.0399,-0.0334,-0.0327,-0.0244,-0.024,-0.0236,-0.0134,-0.0135,-0.0135,-0.0135,-0.0033,-0.0029,-0.0025,0.0007,0,0,-0.0012,-0.001,0,0,0,0,0,0,0,0,-0.0405,-0.0395,-0.0344,-0.0338,-0.0331,-0.0216,-0.0237,-0.0161,-0.0134,-0.0198,-0.0135,-0.0135,-0.0104,-0.0094,-0.005,0.0012,0.0016,-0.0011,-0.0009,-0.0007,-0.0005,0,0,0,0,0,0,0,-0.0412,-0.04,-0.0327,-0.0344,-0.0335,-0.0275,-0.0261,-0.022,-0.0145,-0.0192,-0.0187,-0.0184,-0.0099,-0.0054,-0.0047,0.0018,-0.0011,-0.0007,-0.0005,-0.0003,0.0129,0.013,0,0,0,0,0,0,-0.0455,-0.0407,-0.0333,-0.0324,-0.038,-0.0274,-0.0258,-0.0245,-0.0144,-0.0131,-0.0184,-0.018,-0.0062,-0.0052,-0.0043,-0.0037,-0.0007,-0.0003,-0.0,0.0128,0.0129,0.013,0,0,0,0,0,0,-0.0458,-0.045,-0.0339,-0.037,-0.0353,-0.0274,-0.0259,-0.0242,-0.0186,-0.0139,-0.0125,-0.0146,-0.0061,-0.0049,0.0005,-0.0031,-0.0001,0.0003,0.0127,0.0128,0.0129,-0.0001,0,0,0,0,0,0,-0.0461,-0.0451,-0.044,-0.0373,-0.0353,-0.0289,-0.0259,-0.0239,-0.019,-0.0182,-0.0102,-0.0093,-0.0061,-0.0002,0.0009,-0.0025,0.0007,0.0126,0.0127,0.0129,0.0002,-0.0004,-0.001,0,0,0,0,0,-0.0465,-0.0458,-0.044,-0.043,-0.0345,-0.029,-0.0272,-0.021,-0.0188,-0.016,-0.0106,-0.0095,0.0016,0.0003,0.0015,-0.0018,0.0125,0.0127,0.0129,0.0005,-0.0003,-0.001,0,0,0,0,0,0,-0.0498,-0.0445,-0.0424,-0.0402,-0.0352,-0.0276,-0.0249,-0.0206,-0.0135,-0.013,-0.0077,-0.0063,-0.0035,0.0012,-0.0004,0.0032,0.007,0.0074,-0.0029,-0.0036,-0.0042,-0.0074,0.001,0,0,0,0,0,-0.0503,-0.0476,-0.0425,-0.0404,-0.0387,-0.0314,-0.0279,-0.0239,-0.0181,-0.0146,-0.0103,-0.0051,-0.0015,0.0005,0.005,0.0076,0.0074,0.0067,0.006,0.0054,0.0042,0.0036,0.0025,0.0136,0.0136,0.0136,0,0,-0.0513,-0.048,-0.0465,-0.0408,-0.0364,-0.0334,-0.029,-0.0245,-0.023,-0.0151,-0.0117,-0.0071,-0.0008,0.0013,0.0029,0.0044,0.0015,0.0057,0.005,0.0042,0.0036,0.0025,0.0014,0.0138,0.0137,0.0137,0,0,-0.0529,-0.0491,-0.0478,-0.043,-0.0376,-0.0341,-0.0332,-0.0263,-0.0244,-0.0198,-0.0154,-0.0124,-0.0049,-0.0032,-0.0008,-0.0012,-0.0015,0.0007,-0.006,-0.0067,-0.0078,-0.0087,-0.0154,-0.0168,0.0,-0.0,-0.0,0,-0.0542,-0.0512,-0.0465,-0.0433,-0.0401,-0.0351,-0.0329,-0.0304,-0.023,-0.0235,-0.0203,-0.0126,-0.0079,-0.0078,-0.0078,-0.0036,-0.0051,-0.0051,-0.0082,-0.0091,-0.0098,-0.0164,-0.0178,-0.0006,-0.0006,-0.0005,-0.0004,0,-0.0546,-0.0507,-0.0496,-0.0445,-0.0408,-0.0375,-0.0348,-0.0335,-0.0314,-0.0296,-0.0289,-0.0226,-0.0182,-0.0172,-0.0124,-0.0156,-0.0157,-0.0096,-0.0084,-0.0119,-0.0184,-0.0197,-0.0015,-0.0013,-0.0011,-0.0009,0,0,-0.0592,-0.0518,-0.0508,-0.048,-0.0404,-0.0381,-0.0384,-0.0379,-0.0395,-0.0364,-0.0382,-0.0338,-0.0316,-0.0285,-0.0242,-0.0253,-0.0332,-0.0202,-0.02,-0.0306,-0.04,-0.0457,-0.0476,-0.0278,-0.028,-0.0281,-0.0445,0,-0.0601,-0.0572,-0.0521,-0.0481,-0.0457,-0.0409,-0.0413,-0.0406,-0.0406,-0.0419,-0.0414,-0.0398,-0.036,-0.0336,-0.0351,-0.0312,-0.0361,-0.0296,-0.0315,-0.0318,-0.0394,-0.049,-0.0368,-0.0507,-0.0457,-0.0459,-0.0461,0,-0.0603,-0.0582,-0.0558,-0.05,-0.0488,-0.0468,-0.0469,-0.0462,-0.0487,-0.0482,-0.0495,-0.0474,-0.0497,-0.0435,-0.0478,-0.0437,-0.0437,-0.0428,-0.0433,-0.0447,-0.0397,-0.0447,-0.0531,-0.0264,-0.0479,-0.0478,-0.0477,0,-0.065,-0.0595,-0.0586,-0.0553,-0.0497,-0.0499,-0.049,-0.0496,-0.0503,-0.0529,-0.0532,-0.0559,-0.0558,-0.0566,-0.0567,-0.0513,-0.0627,-0.0538,-0.062,-0.0626,-0.0507,-0.0499,-0.0361,-0.0592,-0.0592,-0.0591,-0.0591,0,-0.0654,-0.0633,-0.0614,-0.0591,-0.0585,-0.0542,-0.0552,-0.0545,-0.0555,-0.0573,-0.057,-0.0596,-0.0582,-0.0638,-0.0627,-0.0704,-0.0686,-0.0678,-0.0676,-0.0552,-0.0547,-0.0293,-0.0183,-0.0597,-0.0596,-0.0595,-0.0594,0,-0.0669,-0.0652,-0.0624,-0.06,-0.0589,-0.0588,-0.0562,-0.0585,-0.0587,-0.0608,-0.0614,-0.0644,-0.0729,-0.077,-0.0802,-0.0792,-0.0735,-0.0866,-0.0767,-0.0751,-0.0556,-0.0461,-0.0513,-0.0412,-0.098,-0.0983,-0.0985,0,-0.0668,-0.066,-0.0633,-0.0615,-0.0595,-0.0593,-0.0593,-0.0592,-0.0609,-0.0642,-0.0662,-0.0756,-0.0817,-0.0952,-0.097,-0.1047,-0.0851,-0.0953,-0.0817,-0.0575,-0.0465,-0.0459,-0.0365,-0.0726,-0.0726,-0.0726,-0.0726,0,-0.0648,-0.0644,-0.0627,-0.0614,-0.0607,-0.0598,-0.0607,-0.062,-0.0634,-0.0663,-0.0729,-0.0786,-0.0933,-0.0977,-0.1087,-0.1064,-0.0752,-0.0956,-0.0684,-0.0269,-0.0271,-0.0158,-0.0629,-0.0724,-0.0724,-0.0724,-0.0724,-0.0724,-0.0619,-0.062,-0.061,-0.0596,-0.0585,-0.0593,-0.0596,-0.0622,-0.0647,-0.067,-0.0761,-0.0825,-0.0864,-0.1009,-0.0969,-0.0719,-0.0812,-0.054,-0.0461,-0.0494,-0.0332,-0.0865,-0.096,-0.0961,-0.0962,-0.0963,-0.0964,0,-0.058,-0.0595,-0.059,-0.0574,-0.0571,-0.0571,-0.0589,-0.0598,-0.0628,-0.0659,-0.0722,-0.0769,-0.0706,-0.0638,-0.0426,-0.0194,-0.0108,-0.0031,0.0136,0.0199,-0.0217,-0.0127,-0.0067,-0.0067,-0.0067,-0.0068,-0.0068,-0.0068,-0.0559,-0.0559,-0.0584,-0.0566,-0.0551,-0.055,-0.0558,-0.057,-0.0582,-0.0598,-0.0617,-0.0656,-0.0491,-0.0079,0.0381,0.0466,0.072,0.0622,0.0695,0.0611,0.0576,0.0542,0.0661,0.0885,0.0886,0.1167,0.1171,0.1174]}],[{"header":{"parameterUnit":"m.s-1","parameterCategory":2,"la1":30.2991,"la2":30.254,"lo1":-89.0895,"lo2":-89.0444,"dy":0.0017,"dx":0.0017,"nx":28,"ny":28,"refTime":"2023-07-18T03:00:00:Z","depth":"2","parameterNumber":2,"parameterNumberName":"U-component_of_CURRENTS"},"data":[0,0,0,0,0,0,0,0,0,0,0,0,0,0,0,0,0,0,0,0,0,0,0,0,0,0,0,0,0,0,0,0,0,0,0,0,0,0,0,0,0,0,0,0,0,0,0,0,0,0,0,0,0,0,0,0,0,0,-0.2505,-0.2505,0,-0.2518,-0.2519,-0.2519,-0.248,-0.2479,-0.2477,-0.2476,-0.2397,-0.2397,-0.2396,0,0,0,0,0,0,0,0,0,0,0,0,0,-0.2566,-0.2564,-0.2505,-0.2505,-0.2504,-0.2518,-0.2519,-0.2519,-0.2481,-0.2479,-0.2477,-0.2475,-0.2397,-0.2397,-0.2396,0,0,0,0,0,0,0,0,0,0,0,0,0,-0.256,-0.2564,-0.2505,-0.2483,-0.2481,-0.2518,-0.2519,-0.252,-0.2481,-0.2479,-0.2476,-0.2474,-0.2398,-0.2397,-0.2396,-0.2441,0,0,-0.2394,-0.2393,0,0,0,0,0,0,0,0,-0.256,-0.2558,-0.2487,-0.2485,-0.2482,-0.2491,-0.2511,-0.2487,-0.2482,-0.2486,-0.2476,-0.2473,-0.2419,-0.2416,-0.2432,-0.2437,-0.2434,-0.2393,-0.2393,-0.2393,-0.2392,0,0,0,0,0,0,0,-0.256,-0.2558,-0.2515,-0.2486,-0.2484,-0.2513,-0.2509,-0.2508,-0.2468,-0.2486,-0.2482,-0.2476,-0.2417,-0.2434,-0.243,-0.2433,-0.2394,-0.2393,-0.2392,-0.2392,-0.2457,-0.2459,0,0,0,0,0,0,-0.2545,-0.2558,-0.2515,-0.2515,-0.251,-0.2513,-0.2509,-0.2495,-0.247,-0.2464,-0.2478,-0.2474,-0.2436,-0.2431,-0.2427,-0.2437,-0.2393,-0.2392,-0.2391,-0.2454,-0.2457,-0.2459,0,0,0,0,0,0,-0.2546,-0.2541,-0.2514,-0.2534,-0.2531,-0.2513,-0.2499,-0.2496,-0.2481,-0.2465,-0.2456,-0.246,-0.2434,-0.2428,-0.2434,-0.2434,-0.2392,-0.2391,-0.2452,-0.2455,-0.2458,-0.2482,0,0,0,0,0,0,-0.2548,-0.2541,-0.2531,-0.2532,-0.2529,-0.2544,-0.25,-0.2498,-0.248,-0.2475,-0.2448,-0.244,-0.2432,-0.2435,-0.2433,-0.2432,-0.239,-0.2449,-0.2453,-0.2457,-0.2479,-0.2486,-0.2492,0,0,0,0,0,-0.255,-0.2534,-0.2531,-0.2525,-0.2514,-0.2545,-0.2549,-0.2531,-0.2481,-0.2502,-0.2481,-0.2439,-0.2459,-0.2437,-0.2433,-0.2432,-0.2447,-0.2452,-0.2457,-0.2476,-0.2484,-0.2492,0,0,0,0,0,0,-0.2562,-0.2529,-0.2524,-0.2501,-0.2529,-0.2537,-0.2528,-0.2521,-0.2522,-0.2491,-0.2468,-0.2463,-0.2465,-0.2461,-0.2437,-0.247,-0.2446,-0.245,-0.2461,-0.2469,-0.2476,-0.2442,-0.2389,0,0,0,0,0,-0.2561,-0.2527,-0.254,-0.2524,-0.2524,-0.2525,-0.2527,-0.2525,-0.2522,-0.2517,-0.2501,-0.2488,-0.2494,-0.2488,-0.2495,-0.2513,-0.2463,-0.2514,-0.2521,-0.2526,-0.2501,-0.2429,-0.2425,-0.2476,-0.2476,-0.2476,0,0,-0.2555,-0.2535,-0.2515,-0.2523,-0.2521,-0.2545,-0.252,-0.2518,-0.2541,-0.2508,-0.2511,-0.2504,-0.2505,-0.2529,-0.2529,-0.2517,-0.2497,-0.2533,-0.2537,-0.2508,-0.2434,-0.2428,-0.2422,-0.2479,-0.2478,-0.2478,0,0,-0.2538,-0.2513,-0.2488,-0.2511,-0.2514,-0.2536,-0.2531,-0.2542,-0.2544,-0.2575,-0.2546,-0.2539,-0.256,-0.2557,-0.2559,-0.2608,-0.2532,-0.2615,-0.2616,-0.2548,-0.2541,-0.2534,-0.2495,-0.2484,-0.262,-0.262,-0.262,0,-0.2537,-0.2504,-0.2498,-0.25,-0.2491,-0.2527,-0.2521,-0.2569,-0.2588,-0.2579,-0.2578,-0.2568,-0.2571,-0.2568,-0.26,-0.2615,-0.2569,-0.2578,-0.2549,-0.2541,-0.2534,-0.2495,-0.2483,-0.2622,-0.2622,-0.2622,-0.2622,0,-0.2515,-0.2498,-0.2484,-0.2488,-0.2501,-0.2503,-0.2552,-0.2588,-0.2586,-0.2607,-0.2599,-0.2612,-0.2594,-0.2613,-0.2625,-0.2586,-0.257,-0.2558,-0.2512,-0.2529,-0.2489,-0.2476,-0.2625,-0.2624,-0.2623,-0.2623,0,0,-0.2434,-0.2466,-0.2448,-0.2444,-0.2477,-0.2481,-0.2536,-0.2575,-0.2581,-0.2619,-0.2593,-0.2628,-0.2602,-0.2603,-0.2603,-0.256,-0.2501,-0.2541,-0.2536,-0.2473,-0.2354,-0.2222,-0.2195,-0.2466,-0.2463,-0.2461,-0.2358,0,-0.2402,-0.2419,-0.2419,-0.2413,-0.2412,-0.2452,-0.2498,-0.2543,-0.258,-0.2598,-0.2599,-0.2586,-0.2614,-0.2586,-0.2556,-0.2509,-0.2462,-0.2531,-0.2372,-0.2368,-0.2221,-0.2173,-0.202,-0.1901,-0.2344,-0.2342,-0.234,0,-0.231,-0.2354,-0.2358,-0.236,-0.2352,-0.2358,-0.2378,-0.2425,-0.2494,-0.251,-0.2506,-0.2525,-0.25,-0.2505,-0.2414,-0.245,-0.24,-0.2362,-0.2357,-0.2201,-0.2207,-0.1954,-0.186,-0.2317,-0.2319,-0.2321,-0.2322,0,-0.2189,-0.2239,-0.2242,-0.2252,-0.2325,-0.2295,-0.2304,-0.2366,-0.2392,-0.2425,-0.2433,-0.2423,-0.2388,-0.2335,-0.231,-0.2343,-0.2183,-0.222,-0.2053,-0.2046,-0.1864,-0.1843,-0.2113,-0.2113,-0.2113,-0.2113,-0.2114,0,-0.2083,-0.2081,-0.2194,-0.2178,-0.2171,-0.2205,-0.2161,-0.2207,-0.2257,-0.2254,-0.2346,-0.2325,-0.2332,-0.2286,-0.2263,-0.2101,-0.214,-0.2014,-0.1983,-0.1876,-0.1858,-0.2179,-0.2188,-0.2109,-0.211,-0.2111,-0.2112,0,-0.1938,-0.2028,-0.2017,-0.2081,-0.2092,-0.206,-0.2054,-0.2067,-0.2125,-0.2123,-0.2128,-0.2211,-0.2131,-0.2145,-0.2042,-0.1998,-0.189,-0.1823,-0.1713,-0.1667,-0.1824,-0.1837,-0.1623,-0.1616,-0.1611,-0.1607,-0.1603,0,-0.1889,-0.1881,-0.1901,-0.1894,-0.1905,-0.1894,-0.19,-0.1969,-0.1997,-0.2035,-0.2037,-0.1999,-0.1926,-0.1765,-0.1684,-0.1574,-0.1712,-0.1376,-0.1398,-0.1768,-0.1761,-0.1782,-0.1801,-0.1203,-0.1196,-0.1191,-0.1186,0,-0.1797,-0.1781,-0.1764,-0.1729,-0.1713,-0.1752,-0.1753,-0.178,-0.1867,-0.1863,-0.1828,-0.175,-0.16,-0.1416,-0.1289,-0.1205,-0.1389,-0.1257,-0.1619,-0.1345,-0.136,-0.1358,-0.1393,-0.1138,-0.1143,-0.1146,-0.1149,-0.1151,-0.1685,-0.1638,-0.1576,-0.1531,-0.1545,-0.1596,-0.1571,-0.1617,-0.1619,-0.1576,-0.1567,-0.1406,-0.1329,-0.1057,-0.0933,-0.0874,-0.0994,-0.0967,-0.0989,-0.1015,-0.0978,-0.0982,-0.0685,-0.0687,-0.0689,-0.0691,-0.0692,0,-0.1565,-0.1488,-0.1408,-0.1376,-0.1382,-0.1422,-0.1484,-0.1455,-0.1405,-0.132,-0.1187,-0.1001,-0.0797,-0.0787,-0.0614,-0.0514,-0.0536,-0.0478,-0.057,-0.0614,-0.0655,-0.0607,-0.0212,-0.0211,-0.021,-0.0209,0,0,-0.1502,-0.1375,-0.1322,-0.1255,-0.1236,-0.1231,-0.1248,-0.1169,-0.1103,-0.0945,-0.0855,-0.0733,-0.076,-0.0558,-0.0424,-0.0324,-0.046,-0.0246,-0.0622,-0.0775,-0.0816,-0.091,-0.088,0,0,0,0,0]},{"header":{"parameterUnit":"m.s-1","parameterCategory":2,"la1":30.2991,"la2":30.254,"lo1":-89.0895,"lo2":-89.0444,"dy":0.0017,"dx":0.0017,"nx":28,"ny":28,"refTime":"2023-07-18T03:00:00:Z","depth":"2","parameterNumber":3,"parameterNumberName":"V-component_of_CURRENTS"},"data":[0,0,0,0,0,0,0,0,0,0,0,0,0,0,0,0,0,0,0,0,0,0,0,0,0,0,0,0,0,0,0,0,0,0,0,0,0,0,0,0,0,0,0,0,0,0,0,0,0,0,0,0,0,0,0,0,0,0,0.0225,0.0225,0,0.0237,0.0237,0.0237,0.0231,0.0231,0.023,0.023,0.0296,0.0298,0.03,0,0,0,0,0,0,0,0,0,0,0,0,0,0.0078,0.0081,0.0225,0.0225,0.0225,0.0237,0.0237,0.0237,0.0231,0.0231,0.023,0.023,0.0295,0.0297,0.03,0,0,0,0,0,0,0,0,0,0,0,0,0,0.012,0.0082,0.0225,0.0224,0.0225,0.0237,0.0237,0.0237,0.0231,0.0231,0.023,0.023,0.0294,0.0297,0.03,0.0324,0,0,0.0309,0.031,0,0,0,0,0,0,0,0,0.0118,0.0126,0.0224,0.0224,0.0225,0.0233,0.0209,0.0269,0.0231,0.0227,0.023,0.023,0.0281,0.0285,0.0285,0.0328,0.033,0.0309,0.0311,0.0312,0.0313,0,0,0,0,0,0,0,0.0115,0.0124,0.0228,0.0225,0.0225,0.0183,0.019,0.022,0.0256,0.0228,0.0227,0.0231,0.0281,0.0282,0.0287,0.0331,0.0309,0.0312,0.0314,0.0315,0.0479,0.0482,0,0,0,0,0,0,0.0123,0.0123,0.0228,0.0229,0.0171,0.0187,0.0194,0.023,0.0254,0.0258,0.0231,0.023,0.0278,0.0284,0.0289,0.0338,0.0312,0.0315,0.0317,0.0477,0.048,0.0483,0,0,0,0,0,0,0.0121,0.0134,0.0227,0.0174,0.0183,0.0191,0.023,0.023,0.0219,0.0256,0.026,0.0219,0.0278,0.0285,0.0316,0.034,0.0316,0.0319,0.0474,0.0478,0.0481,0.0425,0,0,0,0,0,0,0.0117,0.0134,0.0147,0.0176,0.0187,0.023,0.023,0.0231,0.0223,0.0222,0.0248,0.0254,0.0278,0.0311,0.0319,0.0344,0.0321,0.047,0.0476,0.048,0.0423,0.0426,0.0429,0,0,0,0,0,0.0112,0.0128,0.0148,0.0159,0.0211,0.023,0.0231,0.0232,0.0223,0.022,0.0242,0.0253,0.035,0.0314,0.0323,0.0349,0.0468,0.0474,0.048,0.0422,0.0426,0.0429,0,0,0,0,0,0,0.0059,0.0131,0.0152,0.0188,0.0208,0.0229,0.0217,0.0224,0.0236,0.023,0.0262,0.027,0.0314,0.0348,0.0309,0.0422,0.0421,0.0429,0.0375,0.0379,0.0381,0.04,0.0324,0,0,0,0,0,0.006,0.0094,0.0148,0.0167,0.018,0.0197,0.0198,0.0206,0.0225,0.0228,0.0251,0.0296,0.0349,0.0371,0.0416,0.0459,0.0486,0.0496,0.0499,0.05,0.0528,0.0635,0.0649,0.0502,0.0502,0.0502,0,0,0.0036,0.0082,0.0096,0.0157,0.0168,0.0188,0.0196,0.0197,0.0223,0.0236,0.0263,0.0294,0.0363,0.0415,0.0442,0.0442,0.0535,0.0508,0.0508,0.0536,0.0643,0.0657,0.0669,0.0506,0.0506,0.0505,0,0,-0.0003,0.0055,0.0065,0.0091,0.0122,0.0155,0.0155,0.0184,0.0207,0.0238,0.0271,0.0331,0.0375,0.0454,0.0496,0.0553,0.0542,0.0552,0.0577,0.0679,0.0691,0.0702,0.0642,0.0649,0.0557,0.0556,0.0556,0,-0.0038,0.0001,0.0061,0.0075,0.0084,0.0142,0.0139,0.0191,0.0225,0.0264,0.0245,0.0374,0.0418,0.0533,0.0545,0.0561,0.0548,0.054,0.0678,0.0691,0.0704,0.0641,0.0649,0.0554,0.0555,0.0555,0.0555,0,-0.0077,-0.0039,-0.0038,0.0022,0.0042,0.0048,0.0131,0.0172,0.0204,0.0262,0.0359,0.0427,0.0508,0.0538,0.0546,0.0668,0.0596,0.0656,0.0654,0.0715,0.0643,0.0653,0.0552,0.0552,0.0553,0.0553,0,0,-0.0159,-0.0079,-0.0077,-0.0056,0.0012,0.0028,0.01,0.0192,0.0261,0.0325,0.04,0.0517,0.055,0.0605,0.0644,0.0737,0.0769,0.0713,0.0719,0.0621,0.0853,0.0825,0.0831,0.0832,0.0837,0.084,0.0723,0,-0.021,-0.0191,-0.0138,-0.0117,-0.0099,-0.0014,0.0058,0.0155,0.0249,0.0349,0.0477,0.0554,0.0582,0.0595,0.0703,0.0758,0.081,0.0787,0.084,0.0839,0.0786,0.0852,0.0916,0.0825,0.0733,0.0734,0.0735,0,-0.0275,-0.0236,-0.0238,-0.015,-0.0137,-0.0118,0.0007,0.0074,0.0263,0.0322,0.0446,0.0541,0.0662,0.0689,0.083,0.0791,0.0819,0.0868,0.0867,0.0888,0.0837,0.078,0.0846,0.0752,0.075,0.0749,0.0748,0,-0.0372,-0.0309,-0.0309,-0.0291,-0.018,-0.0165,-0.0114,0.0053,0.0132,0.0289,0.0346,0.0527,0.0564,0.0703,0.0777,0.0795,0.0902,0.0953,0.0948,0.0937,0.1039,0.1033,0.1088,0.1088,0.1089,0.1089,0.1089,0,-0.0442,-0.0425,-0.0356,-0.0355,-0.0323,-0.0251,-0.0195,-0.0097,0.0043,0.0139,0.0301,0.0381,0.0579,0.0673,0.076,0.0842,0.0883,0.0963,0.0956,0.1006,0.1,0.101,0.1002,0.1084,0.1085,0.1086,0.1087,0,-0.052,-0.048,-0.047,-0.0398,-0.0373,-0.037,-0.0288,-0.021,-0.0102,0.0014,0.0047,0.024,0.0323,0.0489,0.0653,0.078,0.0894,0.091,0.0865,0.086,0.0842,0.0833,0.0915,0.0914,0.0913,0.0912,0.0912,0,-0.0544,-0.0554,-0.053,-0.0522,-0.0496,-0.0471,-0.0419,-0.0311,-0.0224,-0.007,-0.0009,0.0088,0.0184,0.0362,0.0617,0.0761,0.0762,0.0889,0.1028,0.0864,0.0848,0.084,0.0833,0.1062,0.1063,0.1063,0.1064,0,-0.0577,-0.0597,-0.0586,-0.0588,-0.0574,-0.0527,-0.0463,-0.0419,-0.0276,-0.0202,-0.0109,-0.0044,0.0162,0.0416,0.0621,0.0714,0.0891,0.0905,0.0816,0.1108,0.1,0.0984,0.0973,0.1069,0.1069,0.1068,0.1068,0.1068,-0.0603,-0.062,-0.0635,-0.0634,-0.0613,-0.0566,-0.0541,-0.0457,-0.0383,-0.023,-0.0194,0.0014,0.0251,0.0656,0.0698,0.0831,0.0901,0.1005,0.1006,0.1005,0.1056,0.0958,0.1015,0.1014,0.1013,0.1013,0.1012,0,-0.0591,-0.0625,-0.0652,-0.0645,-0.0629,-0.0608,-0.0524,-0.0483,-0.0426,-0.0272,-0.0203,0.0178,0.046,0.0658,0.0965,0.1057,0.1036,0.0964,0.1009,0.1009,0.1007,0.1059,0.1017,0.1015,0.1014,0.1012,0,0,-0.0579,-0.0617,-0.0648,-0.065,-0.0639,-0.0608,-0.0576,-0.0516,-0.0399,-0.0262,0.0011,0.0257,0.0622,0.0808,0.0872,0.0971,0.0886,0.0892,0.0912,0.095,0.0943,0.1095,0.1183,0,0,0,0,0]}],[{"header":{"parameterUnit":"m.s-1","parameterCategory":2,"la1":30.2991,"la2":30.254,"lo1":-89.0895,"lo2":-89.0444,"dy":0.0017,"dx":0.0017,"nx":28,"ny":28,"refTime":"2023-07-18T03:00:00:Z","depth":"4","parameterNumber":2,"parameterNumberName":"U-component_of_CURRENTS"},"data":[0,0,0,0,0,0,0,0,0,0,0,0,0,0,0,0,0,0,0,0,0,0,0,0,0,0,0,0,0,0,0,0,0,0,0,0,0,0,0,0,0,0,0,0,0,0,0,0,0,0,0,0,0,0,0,0,0,0,-0.1107,-0.1108,0,-0.1166,-0.1166,-0.1166,-0.1179,-0.1179,-0.118,-0.118,-0.1276,-0.1278,-0.128,0,0,0,0,0,0,0,0,0,0,0,0,0,-0.1021,-0.1022,-0.1107,-0.1108,-0.111,-0.1166,-0.1166,-0.1166,-0.1179,-0.1179,-0.118,-0.118,-0.1275,-0.1277,-0.128,0,0,0,0,0,0,0,0,0,0,0,0,0,-0.1059,-0.1022,-0.1107,-0.113,-0.1133,-0.1166,-0.1166,-0.1166,-0.1179,-0.1179,-0.118,-0.1181,-0.1274,-0.1277,-0.128,-0.1289,0,0,-0.129,-0.1292,0,0,0,0,0,0,0,0,-0.1056,-0.1061,-0.1125,-0.1128,-0.1132,-0.1173,-0.1171,-0.1212,-0.1179,-0.1152,-0.118,-0.1181,-0.125,-0.1255,-0.1252,-0.1293,-0.1298,-0.1291,-0.1293,-0.1294,-0.1295,0,0,0,0,0,0,0,-0.1054,-0.1058,-0.1121,-0.1127,-0.1131,-0.1143,-0.1148,-0.1178,-0.1191,-0.1155,-0.1158,-0.1178,-0.1251,-0.1249,-0.1255,-0.1299,-0.1291,-0.1293,-0.1295,-0.1297,-0.1439,-0.144,0,0,0,0,0,0,-0.1063,-0.1056,-0.112,-0.1124,-0.1105,-0.1145,-0.115,-0.1152,-0.119,-0.1199,-0.1178,-0.1179,-0.1243,-0.1251,-0.1258,-0.1334,-0.1294,-0.1297,-0.1299,-0.1437,-0.1439,-0.1441,0,0,0,0,0,0,-0.106,-0.1067,-0.1117,-0.1099,-0.1108,-0.1146,-0.1149,-0.1153,-0.1178,-0.1209,-0.1216,-0.1202,-0.1244,-0.1254,-0.1323,-0.1336,-0.1299,-0.1302,-0.1435,-0.1437,-0.144,-0.1446,0,0,0,0,0,0,-0.1057,-0.1065,-0.1066,-0.1099,-0.1109,-0.1145,-0.1149,-0.1154,-0.1192,-0.1194,-0.1232,-0.1239,-0.1245,-0.1318,-0.1326,-0.134,-0.1304,-0.1432,-0.1436,-0.1439,-0.1444,-0.1449,-0.1453,0,0,0,0,0,-0.1053,-0.1075,-0.1064,-0.1073,-0.1109,-0.1146,-0.1151,-0.1175,-0.1193,-0.1199,-0.1247,-0.1239,-0.1345,-0.1323,-0.1332,-0.1346,-0.1431,-0.1435,-0.1439,-0.1442,-0.1448,-0.1453,0,0,0,0,0,0,-0.1029,-0.108,-0.1069,-0.1099,-0.1118,-0.1152,-0.1182,-0.1191,-0.123,-0.1253,-0.127,-0.1281,-0.1349,-0.1355,-0.133,-0.14,-0.1384,-0.139,-0.1383,-0.1389,-0.1394,-0.1385,-0.1307,0,0,0,0,0,-0.1024,-0.1055,-0.1084,-0.1102,-0.1127,-0.1152,-0.1173,-0.119,-0.1234,-0.1251,-0.1274,-0.1317,-0.1367,-0.1385,-0.1426,-0.1462,-0.1452,-0.1478,-0.1483,-0.1486,-0.1488,-0.1495,-0.15,-0.1454,-0.1454,-0.1454,0,0,-0.1003,-0.1051,-0.1054,-0.11,-0.1128,-0.1155,-0.1166,-0.1218,-0.1239,-0.1259,-0.1306,-0.1345,-0.1388,-0.1435,-0.1462,-0.1441,-0.1493,-0.1491,-0.1494,-0.1494,-0.15,-0.1504,-0.1507,-0.1457,-0.1457,-0.1456,0,0,-0.1017,-0.1041,-0.1075,-0.1104,-0.1167,-0.1182,-0.1203,-0.1244,-0.1267,-0.1322,-0.1347,-0.1393,-0.1458,-0.1471,-0.1495,-0.1552,-0.1531,-0.157,-0.1569,-0.1576,-0.1579,-0.1581,-0.1557,-0.1557,-0.1555,-0.1555,-0.1555,0,-0.0997,-0.1041,-0.1085,-0.1136,-0.1166,-0.1198,-0.1229,-0.1256,-0.1305,-0.132,-0.1349,-0.144,-0.1472,-0.1517,-0.1541,-0.1558,-0.1555,-0.1538,-0.1578,-0.1581,-0.1583,-0.1558,-0.1558,-0.1555,-0.1555,-0.1555,-0.1555,0,-0.1032,-0.1067,-0.1106,-0.1167,-0.1194,-0.1241,-0.1282,-0.1307,-0.1349,-0.1358,-0.1428,-0.1479,-0.1524,-0.154,-0.1567,-0.1597,-0.1586,-0.1592,-0.1553,-0.1587,-0.1559,-0.1559,-0.1557,-0.1556,-0.1556,-0.1556,0,0,-0.0985,-0.1104,-0.1113,-0.114,-0.1224,-0.1244,-0.1297,-0.1329,-0.135,-0.1404,-0.1438,-0.1518,-0.1536,-0.1566,-0.1592,-0.1594,-0.1607,-0.1604,-0.1604,-0.1561,-0.1606,-0.1468,-0.1455,-0.1623,-0.1624,-0.1624,-0.1572,0,-0.0996,-0.1085,-0.1142,-0.1188,-0.1229,-0.1277,-0.1307,-0.1337,-0.138,-0.1414,-0.1471,-0.1524,-0.155,-0.1587,-0.1599,-0.1623,-0.1611,-0.1619,-0.1597,-0.1595,-0.1453,-0.1452,-0.1626,-0.1572,-0.1572,-0.1572,-0.1572,0,-0.0995,-0.107,-0.1132,-0.1201,-0.1221,-0.1251,-0.1298,-0.1327,-0.1378,-0.1416,-0.1472,-0.1523,-0.157,-0.1593,-0.1617,-0.1626,-0.1621,-0.1619,-0.1617,-0.1486,-0.1458,-0.1539,-0.1571,-0.1571,-0.1571,-0.1571,-0.1571,0,-0.0937,-0.104,-0.1093,-0.1122,-0.1212,-0.1247,-0.1281,-0.1324,-0.1343,-0.1421,-0.1449,-0.1515,-0.1559,-0.1585,-0.1596,-0.1621,-0.1594,-0.1622,-0.1479,-0.1469,-0.1605,-0.1603,-0.1619,-0.1619,-0.1619,-0.1619,-0.1619,0,-0.0922,-0.096,-0.1076,-0.1113,-0.1145,-0.1217,-0.125,-0.1284,-0.1345,-0.1351,-0.1449,-0.1468,-0.1564,-0.1569,-0.1585,-0.1511,-0.1581,-0.1468,-0.1445,-0.1608,-0.1608,-0.1603,-0.1602,-0.1617,-0.1617,-0.1618,-0.1618,0,-0.0849,-0.093,-0.0989,-0.11,-0.1127,-0.1146,-0.1226,-0.1236,-0.1305,-0.1332,-0.1364,-0.1432,-0.1422,-0.1463,-0.1478,-0.146,-0.1426,-0.1376,-0.1514,-0.1502,-0.1303,-0.1304,-0.123,-0.1224,-0.122,-0.1216,-0.1213,0,-0.0819,-0.0853,-0.096,-0.0976,-0.104,-0.1093,-0.1114,-0.1201,-0.1221,-0.1282,-0.1283,-0.1301,-0.1335,-0.1221,-0.1289,-0.1266,-0.1259,-0.1249,-0.1313,-0.1278,-0.1263,-0.1271,-0.1277,-0.1206,-0.1205,-0.1203,-0.1202,0,-0.076,-0.0806,-0.0861,-0.0905,-0.0944,-0.0978,-0.1039,-0.1048,-0.1131,-0.1199,-0.1156,-0.1152,-0.1114,-0.1118,-0.1084,-0.1086,-0.1274,-0.1202,-0.1213,-0.1274,-0.1248,-0.124,-0.1252,-0.1187,-0.1189,-0.119,-0.1191,0,-0.0706,-0.0717,-0.0784,-0.0813,-0.0842,-0.086,-0.0913,-0.0939,-0.0966,-0.1052,-0.102,-0.1033,-0.1072,-0.1018,-0.0998,-0.0971,-0.0986,-0.1003,-0.1025,-0.1043,-0.1011,-0.0953,-0.0765,0,0,0,0,0,-0.0641,-0.0653,-0.0676,-0.0715,-0.0738,-0.0766,-0.0846,-0.0909,-0.1003,-0.0927,-0.0975,-0.0928,-0.0885,-0.0895,-0.0831,-0.0944,-0.1009,-0.0871,-0.1046,-0.11,-0.1118,-0.11,0,0,0,0,0,0,-0.0592,-0.0621,-0.0653,-0.0619,-0.0621,-0.0655,-0.0708,-0.0782,-0.0762,-0.084,-0.0803,-0.0863,-0.0819,-0.0872,-0.0796,-0.0805,-0.09,-0.0885,-0.0883,-0.109,-0.1106,-0.1121,-0.1109,0,0,0,0,0]},{"header":{"parameterUnit":"m.s-1","parameterCategory":2,"la1":30.2991,"la2":30.254,"lo1":-89.0895,"lo2":-89.0444,"dy":0.0017,"dx":0.0017,"nx":28,"ny":28,"refTime":"2023-07-18T03:00:00:Z","depth":"4","parameterNumber":3,"parameterNumberName":"V-component_of_CURRENTS"},"data":[0,0,0,0,0,0,0,0,0,0,0,0,0,0,0,0,0,0,0,0,0,0,0,0,0,0,0,0,0,0,0,0,0,0,0,0,0,0,0,0,0,0,0,0,0,0,0,0,0,0,0,0,0,0,0,0,0,0,-0.0201,-0.0201,0,-0.0206,-0.0206,-0.0206,-0.0176,-0.0175,-0.0174,-0.0173,-0.0129,-0.0129,-0.0129,0,0,0,0,0,0,0,0,0,0,0,0,0,-0.0163,-0.0164,-0.0201,-0.0201,-0.0201,-0.0206,-0.0206,-0.0206,-0.0176,-0.0175,-0.0174,-0.0172,-0.0129,-0.0129,-0.0129,0,0,0,0,0,0,0,0,0,0,0,0,0,-0.0177,-0.0165,-0.0201,-0.0185,-0.0183,-0.0206,-0.0206,-0.0206,-0.0176,-0.0175,-0.0173,-0.0172,-0.0129,-0.0129,-0.0128,-0.0157,0,0,-0.0127,-0.0127,0,0,0,0,0,0,0,0,-0.0176,-0.0179,-0.0187,-0.0186,-0.0184,-0.0187,-0.0177,-0.0187,-0.0177,-0.0181,-0.0173,-0.0171,-0.0144,-0.0142,-0.015,-0.0155,-0.0153,-0.0127,-0.0127,-0.0127,-0.0127,0,0,0,0,0,0,0,-0.0175,-0.0178,-0.0204,-0.0187,-0.0186,-0.0177,-0.0177,-0.0179,-0.0171,-0.018,-0.0178,-0.0176,-0.0143,-0.015,-0.0148,-0.0152,-0.0127,-0.0127,-0.0127,-0.0127,-0.0191,-0.0193,0,0,0,0,0,0,-0.0173,-0.0178,-0.0204,-0.0204,-0.0174,-0.0179,-0.0179,-0.0189,-0.0172,-0.0168,-0.0177,-0.0175,-0.0152,-0.0149,-0.0147,-0.0185,-0.0127,-0.0127,-0.0127,-0.019,-0.0192,-0.0194,0,0,0,0,0,0,-0.0173,-0.0176,-0.0204,-0.0189,-0.0191,-0.0181,-0.0192,-0.019,-0.019,-0.017,-0.0165,-0.0178,-0.015,-0.0147,-0.0152,-0.0182,-0.0127,-0.0126,-0.0187,-0.019,-0.0193,-0.0257,0,0,0,0,0,0,-0.0172,-0.0176,-0.0189,-0.0189,-0.0192,-0.0219,-0.0194,-0.0191,-0.0191,-0.0187,-0.017,-0.0164,-0.0149,-0.0152,-0.0151,-0.0181,-0.0126,-0.0185,-0.0189,-0.0192,-0.0253,-0.0262,-0.027,0,0,0,0,0,-0.0171,-0.0196,-0.019,-0.0193,-0.0209,-0.022,-0.0222,-0.0209,-0.0192,-0.0202,-0.019,-0.0164,-0.0175,-0.0154,-0.0152,-0.0182,-0.0183,-0.0188,-0.0192,-0.0249,-0.026,-0.027,0,0,0,0,0,0,-0.0195,-0.0195,-0.0189,-0.0215,-0.0216,-0.0214,-0.0223,-0.0213,-0.0214,-0.0206,-0.0183,-0.0178,-0.0198,-0.0184,-0.0162,-0.0214,-0.0178,-0.0182,-0.0222,-0.0232,-0.0241,-0.0223,-0.0126,0,0,0,0,0,-0.0205,-0.0215,-0.0217,-0.0235,-0.0238,-0.023,-0.0234,-0.0226,-0.0223,-0.0221,-0.0216,-0.0212,-0.022,-0.0218,-0.0224,-0.0246,-0.0175,-0.0268,-0.0277,-0.0284,-0.0271,-0.0207,-0.0207,-0.0208,-0.0208,-0.0208,0,0,-0.0223,-0.0219,-0.023,-0.0239,-0.0238,-0.026,-0.0229,-0.0237,-0.0255,-0.0217,-0.0246,-0.0242,-0.0234,-0.0263,-0.0271,-0.025,-0.0243,-0.029,-0.0296,-0.0278,-0.0211,-0.021,-0.021,-0.0211,-0.0211,-0.021,0,0,-0.0251,-0.0257,-0.0271,-0.028,-0.0278,-0.0279,-0.0281,-0.0287,-0.0289,-0.0316,-0.0297,-0.0307,-0.0324,-0.0325,-0.0325,-0.0385,-0.0293,-0.0393,-0.0417,-0.0356,-0.0354,-0.0351,-0.0232,-0.0218,-0.0394,-0.0395,-0.0395,0,-0.0266,-0.029,-0.0279,-0.0296,-0.031,-0.029,-0.0317,-0.0326,-0.0335,-0.0338,-0.0333,-0.0359,-0.0356,-0.0376,-0.0399,-0.0404,-0.0322,-0.0376,-0.0363,-0.0359,-0.0355,-0.0233,-0.0217,-0.0398,-0.0398,-0.0397,-0.0397,0,-0.0308,-0.0329,-0.034,-0.0356,-0.0371,-0.0391,-0.0399,-0.0414,-0.0416,-0.0417,-0.0439,-0.0442,-0.0445,-0.0463,-0.0447,-0.0438,-0.037,-0.0379,-0.0327,-0.0358,-0.0228,-0.021,-0.0403,-0.0402,-0.0401,-0.04,0,0,-0.0327,-0.0362,-0.0364,-0.0383,-0.0405,-0.042,-0.0454,-0.0471,-0.0481,-0.0499,-0.0506,-0.054,-0.0517,-0.0516,-0.0503,-0.046,-0.0368,-0.0405,-0.04,-0.0267,-0.0166,-0.0127,-0.0103,-0.0361,-0.0359,-0.0357,-0.0074,0,-0.0357,-0.0398,-0.0412,-0.0464,-0.049,-0.0497,-0.0532,-0.0544,-0.0545,-0.055,-0.054,-0.0549,-0.0543,-0.0541,-0.0499,-0.0404,-0.0328,-0.044,-0.0172,-0.0162,-0.011,-0.0085,-0.0352,-0.006,-0.0056,-0.0053,-0.005,0,-0.0389,-0.0411,-0.0464,-0.0512,-0.0525,-0.0561,-0.0592,-0.062,-0.0615,-0.0612,-0.0601,-0.0575,-0.0526,-0.0522,-0.0345,-0.0406,-0.0283,-0.0204,-0.0192,-0.0119,-0.0092,-0.0031,-0.0017,-0.0019,-0.0022,-0.0024,-0.0026,0,-0.0393,-0.0446,-0.0488,-0.051,-0.0565,-0.0594,-0.0623,-0.0637,-0.0653,-0.0636,-0.0624,-0.0566,-0.0519,-0.039,-0.023,-0.0267,0.0001,-0.0034,0.0128,0.0136,0.0047,0.0041,0.0114,0.0113,0.0113,0.0112,0.0111,0,-0.0415,-0.0449,-0.0497,-0.0527,-0.0583,-0.0614,-0.0662,-0.0678,-0.0684,-0.0679,-0.0649,-0.0603,-0.0481,-0.0325,-0.0188,0.0049,0.0047,0.0156,0.0206,0.0015,0.0002,0.0063,0.0053,0.0123,0.012,0.0118,0.0116,0,-0.0415,-0.0446,-0.0504,-0.0569,-0.0591,-0.0634,-0.0695,-0.0716,-0.0719,-0.0701,-0.069,-0.059,-0.0368,-0.0207,0.0041,0.0116,0.0318,0.0405,0.0254,0.0286,0.0413,0.0396,0.0621,0.0625,0.0628,0.063,0.0633,0,-0.042,-0.0446,-0.0528,-0.0567,-0.0603,-0.0663,-0.0699,-0.0733,-0.074,-0.0677,-0.065,-0.0455,-0.0356,0.0055,0.0194,0.0497,0.0503,0.0601,0.044,0.0437,0.0463,0.0441,0.0421,0.0637,0.0638,0.0639,0.064,0,-0.0432,-0.0461,-0.051,-0.0577,-0.0632,-0.069,-0.0733,-0.0737,-0.074,-0.073,-0.056,-0.0385,-0.0118,0.0121,0.0367,0.0553,0.0515,0.0633,0.0625,0.0475,0.0459,0.0477,0.0453,0.065,0.0649,0.0648,0.0647,0,-0.0438,-0.0474,-0.0529,-0.0586,-0.0655,-0.0698,-0.0726,-0.0692,-0.0688,-0.0607,-0.0527,-0.0283,-0.0142,0.016,0.0378,0.0575,0.0585,0.0569,0.0565,0.0555,0.0408,0.0369,0.0605,0,0,0,0,0,-0.0431,-0.0466,-0.0528,-0.0604,-0.0667,-0.0699,-0.0737,-0.075,-0.0729,-0.0593,-0.0561,-0.0303,0.003,0.0166,0.0384,0.0394,0.0586,0.0643,0.0558,0.0709,0.0697,0.0532,0,0,0,0,0,0,-0.0434,-0.0485,-0.052,-0.0593,-0.0639,-0.0706,-0.0728,-0.0717,-0.0633,-0.0574,-0.037,-0.0285,0.0063,-0.0061,0.0388,0.0442,0.0401,0.0804,0.0807,0.0716,0.0705,0.0695,0.0521,0,0,0,0,0]}]]